Simultaneous Nadir Overpasses (SNOs) Predictions

Prediction of SNOs between NOAA-20 and METOP-C Satellite Orbit:

Table of predicted SNOs for the next 14.0 days since TLE Epoch: 6/17/2023
Index Date (NOAA-20) Time (NOAA-20) Lat,Lon (NOAA-20) SZA (NOAA-20 ) Date (METOP-C) Time (METOP-C) Lat,Lon (METOP-C) SZA (METOP-C ) Distance(km) Time Diff (sec)
1 06/20/2023 02:20:43 73.56, 135.19 50.34 06/20/2023 02:21:50 73.51, 137.94 50.14 86.69 67
2 06/20/2023 03:11:26 -73.52, -57.39 129.72 06/20/2023 03:12:33 -73.50, -54.78 129.88 82.53 67
3 06/20/2023 04:02:07 73.27, 110.49 50.01 06/20/2023 04:03:17 73.24, 111.99 49.89 48.07 70
4 06/20/2023 04:52:50 -73.22, -82.10 130.05 06/20/2023 04:54:01 -73.18, -80.83 130.17 41.01 71
5 06/20/2023 05:43:31 72.97, 85.77 49.68 06/20/2023 05:44:45 72.92, 85.95 49.60 8.11 74
6 06/20/2023 06:34:14 -72.92,-106.83 130.37 06/20/2023 06:35:28 -72.91,-106.75 130.41 3.07 74
7 06/20/2023 07:24:59 72.87, 60.60 49.57 06/20/2023 07:26:07 72.90, 60.56 49.58 3.34 68
8 06/20/2023 08:15:43 -72.88,-132.10 130.43 06/20/2023 08:16:50 -72.89,-132.14 130.43 1.61 67
9 06/20/2023 09:06:29 72.87, 35.22 49.57 06/20/2023 09:07:29 72.88, 35.18 49.56 1.34 60
10 06/20/2023 09:57:13 -72.88,-157.48 130.42 06/20/2023 09:58:12 -72.86,-157.52 130.45 2.00 59
11 06/20/2023 10:47:59 72.87, 9.84 49.57 06/20/2023 10:48:51 72.85, 9.80 49.55 2.53 52
12 06/20/2023 11:38:43 -72.88, 177.14 130.42 06/20/2023 11:39:33 -72.89, 177.20 130.42 2.56 50
13 06/20/2023 12:29:29 72.88, -15.54 49.58 06/20/2023 12:30:12 72.88, -15.48 49.57 2.20 43
14 06/20/2023 13:20:13 -72.88, 151.76 130.42 06/20/2023 13:20:55 -72.87, 151.82 130.44 2.25 42
15 06/20/2023 14:10:59 72.88, -40.92 49.58 06/20/2023 14:11:34 72.86, -40.87 49.55 2.61 35
16 06/20/2023 15:01:42 -72.84, 126.48 130.47 06/20/2023 15:02:17 -72.85, 126.44 130.46 2.51 35
17 06/20/2023 15:52:28 72.83, -66.20 49.53 06/20/2023 15:52:56 72.84, -66.25 49.53 2.08 28
18 06/20/2023 16:43:12 -72.84, 101.10 130.47 06/20/2023 16:43:39 -72.83, 101.05 130.48 1.83 27
19 06/20/2023 17:33:58 72.83, -91.58 49.53 06/20/2023 17:34:18 72.82, -91.63 49.52 2.30 20
20 06/20/2023 18:24:42 -72.84, 75.72 130.47 06/20/2023 18:25:00 -72.86, 75.77 130.45 2.88 18
21 06/20/2023 19:15:28 72.84,-116.96 49.53 06/20/2023 19:15:39 72.85,-116.91 49.54 2.22 11
22 06/20/2023 20:06:12 -72.84, 50.34 130.46 06/20/2023 20:06:22 -72.84, 50.39 130.47 1.59 10
23 06/20/2023 20:56:58 72.84,-142.34 49.54 06/20/2023 20:57:01 72.83,-142.29 49.52 1.83 3
24 06/20/2023 21:47:42 -72.85, 24.96 130.46 06/20/2023 21:47:44 -72.82, 25.01 130.49 3.21 2
25 06/20/2023 22:38:27 72.79,-167.61 49.48 06/20/2023 22:38:23 72.81,-167.68 49.50 2.85 4
26 06/20/2023 23:29:11 -72.80, -0.31 130.51 06/20/2023 23:29:06 -72.80, -0.37 130.51 2.09 5
27 06/21/2023 00:19:57 72.79, 167.01 49.49 06/21/2023 00:19:45 72.79, 166.94 49.48 2.34 12
28 06/21/2023 01:10:41 -72.80, -25.69 130.51 06/21/2023 01:10:28 -72.78, -25.76 130.53 3.29 13
29 06/21/2023 02:01:27 72.80, 141.62 49.49 06/21/2023 02:01:06 72.82, 141.66 49.51 2.53 21
30 06/21/2023 02:52:11 -72.80, -51.07 130.51 06/21/2023 02:51:49 -72.81, -51.04 130.50 1.31 22
31 06/21/2023 03:42:57 72.80, 116.24 49.49 06/21/2023 03:42:28 72.80, 116.28 49.49 1.12 29
32 06/21/2023 04:33:41 -72.81, -76.45 130.51 06/21/2023 04:33:11 -72.79, -76.42 130.52 2.32 30
33 06/21/2023 05:24:27 72.80, 90.86 49.49 06/21/2023 05:23:50 72.78, 90.89 49.47 3.20 37
34 06/21/2023 06:15:10 -72.76,-101.73 130.56 06/21/2023 06:14:33 -72.77,-101.80 130.54 2.64 37
35 06/21/2023 07:05:56 72.76, 65.59 49.44 06/21/2023 07:05:12 72.75, 65.51 49.46 2.64 44
36 06/21/2023 07:56:40 -72.76,-127.11 130.55 06/21/2023 07:55:55 -72.75,-127.19 130.56 3.04 45
37 06/21/2023 08:47:26 72.76, 40.21 49.45 06/21/2023 08:46:33 72.78, 40.23 49.48 3.01 53
38 06/21/2023 09:38:10 -72.76,-152.49 130.55 06/21/2023 09:37:16 -72.78,-152.46 130.53 1.58 54
39 06/21/2023 10:28:56 72.76, 14.83 49.45 06/21/2023 10:27:55 72.76, 14.85 49.46 0.68 61
40 06/21/2023 11:19:39 -72.77,-177.87 130.55 06/21/2023 11:18:37 -72.76,-177.85 130.55 1.45 62
41 06/21/2023 12:10:25 72.76, -10.55 49.45 06/21/2023 12:09:16 72.74, -10.54 49.44 2.47 69
42 06/21/2023 13:01:08 -72.72, 156.86 130.60 06/21/2023 12:59:59 -72.73, 156.77 130.57 3.31 69
43 06/21/2023 13:51:53 72.66, -35.72 49.34 06/21/2023 13:50:39 72.67, -36.02 49.38 9.98 74
44 06/21/2023 14:42:36 -72.62, 131.68 130.71 06/21/2023 14:41:22 -72.66, 131.28 130.63 14.07 74
45 06/21/2023 15:33:17 72.36, -60.49 49.01 06/21/2023 15:32:07 72.34, -62.02 49.09 51.70 70
46 06/21/2023 16:24:00 -72.32, 106.91 131.04 06/21/2023 16:22:50 -72.34, 105.29 130.91 54.78 70
47 06/21/2023 17:14:41 72.06, -85.27 48.68 06/21/2023 17:13:34 72.06, -87.90 48.85 89.89 67
48 06/21/2023 18:05:24 -72.01, 82.12 131.36 06/21/2023 18:04:18 -72.01, 79.32 131.20 96.25 66



Historial Predications of SNOs between NOAA-20 and METOP-C
